Theta_e
281 281 280 280 280 279 279 279 278 278 278 278 278 278 278 278 278 278 278 277 277 277 276 276 276 276 276 276 275 275 275 275 276 276 276 275 276 276 276 276 275 276 276 276 277 277 277 276 276 277 278 277 278 278 278 279 279 279 280 280 279 280 280 279 277 278 281 284 283 283 285 286 284 286 286 286 287 288 289 290 290 290 290 290 290
281 280 280 279 279 278 278 278 278 278 277 277 277 277 277 277 277 277 276 276 276 275 275 275 275 275 274 274 274 274 275 275 275 275 274 274 274 275 275 275 275 275 275 275 276 276 276 276 276 277 277 277 277 277 278 278 278 278 278 279 278 279 280 278 278 277 277 280 281 283 283 285 282 285 284 285 285 287 287 287 288 288 288 289 289
280 280 279 278 277 277 277 277 277 277 277 276 276 276 276 276 276 275 274 274 275 275 274 274 274 274 273 273 274 274 274 273 273 273 273 273 273 273 274 274 274 273 274 274 274 275 275 275 275 276 277 276 276 277 277 277 278 277 277 278 278 278 279 279 278 276 276 277 280 280 281 282 282 283 284 285 285 286 285 286 286 287 288 289 288
279 279 278 277 277 277 277 277 276 276 276 276 275 275 275 275 274 273 273 273 273 273 273 273 273 273 272 272 272 272 272 272 272 272 272 272 272 272 272 273 273 273 273 273 274 274 274 274 274 274 274 274 275 275 276 276 276 276 276 277 277 277 278 279 279 277 277 276 278 279 280 280 281 283 284 284 284 284 284 285 286 286 287 288 288
279 278 278 277 277 277 276 276 276 275 275 275 274 274 273 273 273 272 272 272 272 272 272 272 272 271 271 271 271 271 271 271 271 271 271 272 271 272 272 272 273 273 273 273 273 273 273 273 273 273 273 273 273 274 274 274 275 275 275 275 276 277 277 278 278 278 277 276 277 279 280 280 281 282 282 281 282 283 284 284 284 285 285 287 288
278 278 277 277 276 276 276 275 275 275 274 274 273 273 272 272 271 271 271 270 271 271 270 270 271 270 270 270 270 270 270 270 270 270 270 271 271 272 272 272 272 272 273 273 273 273 272 272 273 273 273 272 272 273 274 274 274 274 275 275 276 277 277 277 277 277 277 277 277 277 279 279 279 280 282 282 281 281 282 283 284 284 284 284 286
278 278 277 277 276 276 275 275 275 274 273 273 272 271 271 270 270 269 270 269 269 269 269 269 269 269 269 269 269 269 269 269 269 269 269 270 271 272 272 272 272 272 272 273 273 273 273 273 273 273 273 273 273 273 273 274 274 274 275 275 276 276 276 276 276 276 276 276 276 277 277 278 278 277 280 282 281 281 280 280 280 283 284 284 283
277 277 277 276 276 275 275 274 274 273 272 272 271 270 269 269 268 268 268 268 268 268 267 267 268 268 268 267 268 268 268 268 268 268 269 271 272 272 272 272 272 272 272 273 273 273 273 272 273 273 273 273 273 273 274 273 274 274 274 275 275 274 274 274 274 274 274 274 274 274 275 275 277 278 279 279 278 279 280 280 278 280 281 283 284
277 276 276 275 275 275 274 273 273 272 271 270 269 268 268 268 267 267 267 267 267 267 267 267 266 266 266 267 267 267 267 267 267 268 271 272 272 272 272 272 272 272 272 272 272 272 272 272 272 273 273 274 275 275 275 275 273 272 273 274 274 274 274 274 274 274 274 274 274 276 275 275 276 277 277 277 277 277 280 281 279 280 281 281 282
276 276 275 274 274 273 272 272 271 270 269 268 267 267 267 266 266 266 266 266 266 266 266 266 266 265 265 266 266 266 266 266 267 271 273 273 273 272 272 272 272 272 271 271 271 272 272 272 272 273 273 273 273 274 274 275 275 274 273 273 272 272 271 271 271 272 272 272 272 272 272 272 274 274 275 276 277 278 278 279 278 280 281 280 281
276 276 275 273 272 271 270 270 269 268 268 267 266 266 266 265 265 264 264 264 264 265 265 265 265 265 265 265 265 265 265 266 269 272 273 274 274 273 272 272 272 272 271 271 270 271 271 271 271 271 271 271 270 272 274 274 274 275 275 275 275 272 271 271 271 272 271 271 272 272 272 272 273 275 275 275 276 276 277 278 278 278 278 277 277
275 274 273 272 271 270 269 268 267 267 266 265 265 264 264 263 263 263 263 263 264 264 264 264 264 264 264 264 264 264 265 267 270 272 273 274 275 273 272 272 272 272 271 271 270 269 269 269 269 269 269 270 270 270 271 273 273 274 274 274 275 275 276 273 271 270 271 270 270 270 271 270 271 272 273 273 274 275 275 276 276 276 276 276 276
274 272 271 270 269 268 267 266 266 265 264 264 264 263 262 263 262 262 262 263 263 263 263 263 263 263 263 263 263 263 264 266 269 271 273 274 274 274 272 272 271 271 270 269 269 268 268 268 268 269 269 271 270 270 270 270 272 273 273 273 274 274 274 275 276 273 272 270 270 270 271 272 271 272 273 273 274 272 272 272 272 273 274 275 277
272 271 269 269 268 267 266 265 265 264 263 263 263 262 262 262 262 262 262 262 262 262 262 262 262 262 262 262 262 263 263 265 269 272 273 273 274 274 272 271 271 269 269 268 268 268 268 268 268 268 269 269 269 269 270 269 270 270 270 271 271 272 274 275 275 276 275 272 271 269 271 272 271 272 274 275 273 272 273 272 274 274 274 274 276
270 270 268 268 267 266 266 264 264 263 263 262 262 262 261 261 262 262 261 262 262 261 261 261 261 261 261 261 261 261 262 267 269 271 272 273 274 274 271 270 269 269 269 269 269 268 268 268 268 268 269 269 269 270 270 270 270 270 270 270 271 271 272 272 272 273 273 273 273 273 273 273 274 274 275 276 275 275 275 274 275 275 276 277 277
269 268 267 266 266 265 264 263 263 263 262 261 261 262 261 261 261 261 261 261 261 261 261 261 260 260 260 260 260 260 261 266 268 270 272 273 274 271 270 269 269 269 269 269 269 269 269 269 269 269 269 269 271 274 274 272 272 271 271 271 271 272 272 274 276 277 275 275 275 275 275 276 278 277 277 277 277 278 278 278 278 277 275 274 273
269 268 267 266 265 265 265 263 262 262 261 261 260 260 261 260 260 260 259 260 260 260 259 259 260 260 259 259 259 260 260 263 268 270 271 273 272 269 269 269 269 268 269 269 269 270 270 270 270 269 270 270 272 275 276 276 272 272 272 271 272 272 272 274 277 278 279 279 280 280 280 280 281 281 281 281 279 278 277 274 273 274 272 270 271
269 267 266 265 265 264 264 262 261 261 260 259 260 262 260 260 259 259 259 259 259 259 259 258 259 259 259 258 259 259 260 263 268 269 271 272 272 269 269 268 268 269 269 270 270 270 270 271 272 271 271 271 274 276 277 276 273 273 273 272 272 272 272 274 274 275 278 279 279 279 279 280 280 281 281 281 280 279 275 272 273 273 271 271 270
268 267 266 265 264 263 262 262 262 260 260 261 259 259 259 259 259 258 258 258 258 258 258 258 258 258 258 258 260 261 260 261 266 268 270 271 271 270 270 269 268 269 269 269 270 270 270 271 273 273 273 274 277 278 278 276 274 274 273 272 272 271 273 274 274 274 274 274 274 275 276 277 276 276 277 279 279 279 276 275 275 273 271 271 271
268 267 266 264 263 262 262 261 260 259 260 259 258 258 258 257 257 258 257 257 257 257 257 257 256 257 258 258 258 259 259 260 261 268 270 271 272 270 270 269 269 269 269 269 269 270 270 270 272 275 276 277 277 278 278 278 275 274 274 273 272 271 274 274 274 274 274 274 274 275 274 275 276 276 276 276 276 276 276 276 275 274 272 272 271
266 265 264 263 262 261 261 260 259 258 259 258 259 257 257 259 258 257 256 256 256 256 256 256 257 257 258 259 259 259 259 260 261 268 270 271 272 272 270 270 270 270 270 270 271 271 271 272 272 275 277 277 277 278 279 279 278 276 275 274 274 275 277 275 275 277 275 275 275 275 275 275 275 275 275 275 275 276 276 276 276 275 274 272 272
265 263 263 262 261 260 258 258 258 257 256 256 256 256 256 256 256 256 256 256 255 255 256 256 256 257 258 258 258 259 260 262 262 266 270 271 273 274 272 272 273 272 271 271 271 271 272 272 272 274 277 277 278 278 278 278 278 276 276 278 279 278 276 276 275 275 274 274 273 273 273 273 273 273 273 273 274 274 275 275 275 275 275 275 273
264 263 262 260 259 258 257 256 256 255 255 256 255 255 255 254 254 254 254 254 254 254 255 256 256 256 257 258 259 259 260 261 265 266 270 272 274 274 275 274 276 274 272 271 272 272 273 273 273 275 277 278 278 278 279 279 278 276 278 279 279 278 277 274 273 272 272 272 271 271 271 271 271 271 271 272 273 274 274 274 274 274 274 275 275
262 261 260 259 258 257 255 254 254 254 255 255 254 254 254 254 254 253 254 254 255 255 256 256 256 256 256 257 258 260 261 263 265 269 270 272 274 275 275 276 276 274 274 273 273 272 272 272 274 277 277 277 277 277 277 277 275 277 277 277 277 276 272 270 269 269 269 268 268 268 268 270 270 270 271 272 272 273 273 274 274 274 274 274 274
261 260 259 257 256 255 253 253 253 252 253 254 254 254 254 251 254 254 254 254 255 254 255 254 255 255 256 257 259 261 263 265 266 268 271 272 273 274 275 276 276 277 273 272 272 272 274 276 276 275 275 275 275 275 274 273 274 275 275 275 273 270 269 268 268 268 267 267 268 268 268 269 270 271 272 273 273 273 273 273 274 274 274 274 274
260 259 257 256 256 254 254 253 252 253 253 253 254 254 254 254 255 254 254 255 254 253 255 255 255 255 256 258 261 263 265 266 267 268 269 270 271 273 274 275 275 275 274 272 273 274 274 274 274 273 272 272 270 269 269 269 272 273 272 271 269 268 268 268 268 267 267 267 268 268 269 270 271 272 273 273 272 272 272 272 272 272 272 272 272
260 258 257 256 254 253 255 255 254 253 252 253 253 254 254 254 253 255 255 254 254 254 254 255 255 256 257 259 262 264 265 265 267 268 268 269 269 271 272 273 273 273 271 270 270 270 269 269 268 270 269 270 269 269 268 268 267 267 267 267 267 267 267 266 266 266 267 267 268 269 270 271 272 272 272 272 272 272 273 272 271 271 272 272 271
260 258 256 255 255 254 255 256 256 254 254 253 254 253 253 254 254 254 254 254 254 254 254 255 256 257 259 261 262 263 263 265 267 267 268 269 271 272 273 271 271 270 269 269 268 265 263 265 264 263 263 263 263 263 264 264 264 264 264 264 264 265 265 266 267 266 267 268 268 269 270 271 270 271 272 272 272 272 273 272 271 271 272 271 270
258 256 255 254 254 254 254 254 255 255 255 254 254 255 255 254 254 255 255 256 256 256 256 257 259 259 260 261 262 262 265 267 267 271 271 273 272 272 271 271 271 269 270 271 264 261 260 260 260 260 260 260 260 261 261 261 261 262 261 262 263 263 263 264 264 265 266 267 267 267 268 269 270 271 271 271 272 272 273 272 272 271 271 271 270
257 257 256 255 254 254 255 254 254 255 254 254 252 253 257 262 259 256 257 261 265 266 265 260 261 262 262 263 264 266 267 268 272 273 273 273 274 274 273 273 273 270 271 269 264 258 258 258 258 258 259 259 259 259 259 259 259 260 260 262 261 261 262 263 264 264 265 265 266 266 267 268 269 271 271 271 272 272 273 273 272 272 271 271 270
258 258 256 256 256 256 255 255 255 254 254 254 253 254 254 257 263 267 267 267 268 269 270 271 272 272 269 268 270 272 272 272 272 272 273 273 274 273 273 272 271 270 270 264 259 257 257 257 257 258 258 258 258 258 259 258 259 259 259 260 261 261 262 262 263 264 264 264 265 266 267 269 270 271 271 271 271 272 273 273 273 273 272 272 271
260 259 258 258 258 257 257 257 256 255 255 255 254 254 253 254 256 262 265 267 268 269 270 270 271 271 271 271 270 268 269 271 271 272 272 273 272 272 272 271 270 269 269 265 257 256 256 256 256 257 257 257 257 258 258 258 258 258 259 259 259 261 261 261 263 263 263 264 264 266 267 269 269 270 270 271 272 272 272 272 273 272 273 273 273
260 259 259 258 258 258 257 257 257 257 255 253 253 253 253 253 254 256 259 263 265 267 268 269 270 270 271 271 270 270 270 270 271 271 272 272 271 271 270 268 267 267 266 259 255 256 256 256 256 256 257 256 257 257 257 258 258 258 259 259 259 260 261 262 263 263 264 264 265 266 267 267 268 268 269 270 271 271 271 272 272 273 273 273 274
260 260 259 258 258 258 258 257 257 256 255 254 253 253 254 254 253 253 254 255 258 261 265 266 266 267 267 268 268 269 269 269 270 271 271 270 270 269 267 263 265 265 263 258 256 255 256 255 256 256 256 257 257 257 257 257 258 258 259 259 260 261 261 262 263 263 263 264 265 265 266 266 267 266 266 267 268 269 270 271 271 272 272 272 273
260 259 258 258 258 258 258 258 257 255 254 254 254 254 254 254 255 254 253 254 255 256 256 257 260 263 263 264 266 268 268 269 269 270 270 269 268 267 264 256 256 256 256 255 255 255 255 255 255 256 256 256 256 257 257 257 258 258 259 259 260 261 261 262 262 263 264 264 264 265 265 265 265 266 266 266 266 267 268 270 270 271 271 272 273
259 259 258 258 257 258 257 256 256 255 254 254 254 254 254 254 255 254 255 255 255 254 255 256 256 259 262 264 266 267 267 268 268 269 268 267 266 264 255 254 254 254 255 255 255 255 256 256 256 255 256 256 256 257 257 257 258 258 259 259 260 261 261 262 263 264 264 264 264 264 265 264 265 265 265 266 266 267 268 269 270 271 271 272 273
258 258 258 258 257 258 257 256 256 256 257 255 255 254 254 255 255 254 254 254 254 254 254 254 254 255 258 258 259 263 265 266 267 268 266 264 264 257 252 253 253 254 254 254 255 255 255 255 255 255 255 256 256 256 257 257 258 258 260 260 260 261 262 263 264 264 263 263 264 264 264 264 264 265 265 264 265 266 267 268 269 270 271 271 272
257 257 257 257 257 257 256 255 255 256 256 256 255 255 255 254 254 254 254 253 254 254 253 253 255 254 254 254 258 257 258 263 265 264 262 260 256 253 253 253 253 253 254 254 254 254 254 254 255 255 255 255 256 256 257 257 258 259 259 260 261 262 264 264 264 263 264 264 264 264 264 264 264 264 265 264 265 266 267 268 268 268 269 270 271
256 258 258 259 259 256 255 255 254 254 255 255 255 254 254 253 253 253 253 252 252 253 253 252 252 252 253 254 253 255 257 258 259 257 255 253 253 252 252 252 252 252 253 253 253 254 253 253 254 255 255 255 255 256 256 257 258 258 259 261 262 263 263 263 264 264 264 264 264 264 264 264 264 264 264 265 265 265 266 267 267 268 268 269 270
257 257 258 259 259 259 256 255 254 254 254 254 253 253 252 253 253 253 251 251 252 252 251 251 252 252 253 251 252 254 256 258 259 257 254 253 252 252 251 251 251 252 252 252 253 252 253 253 253 254 254 254 255 255 256 257 257 258 260 261 261 262 263 264 264 264 264 264 264 264 263 263 264 264 264 265 265 265 266 266 266 267 268 269 269
257 258 257 259 259 258 258 256 255 255 254 254 253 252 252 253 252 252 251 251 252 252 252 252 252 253 253 255 260 262 260 260 258 255 254 253 252 251 251 251 252 251 252 252 252 252 252 252 253 253 254 254 255 255 256 256 257 258 259 260 261 262 263 264 264 264 264 264 264 263 263 264 264 264 264 264 266 266 265 266 266 267 268 268 269
257 256 256 256 257 256 255 255 254 254 253 252 252 252 252 252 252 251 252 252 252 252 252 252 252 252 254 258 261 264 262 256 254 253 253 252 252 251 252 252 251 251 251 251 251 251 252 252 252 253 253 253 254 254 255 256 256 257 259 260 261 262 263 263 264 264 264 264 263 263 263 264 264 264 264 266 264 265 265 265 266 266 267 267 268
254 254 254 253 254 254 254 253 251 250 250 251 252 252 253 252 251 252 252 252 252 252 252 252 252 251 252 258 258 261 257 253 253 252 252 252 252 252 252 252 252 251 251 251 251 251 251 251 251 252 253 253 253 254 254 255 256 257 259 260 261 262 262 263 264 264 265 264 263 263 263 263 263 263 263 264 264 265 265 265 265 265 266 266 267
252 252 252 252 252 251 251 250 250 251 250 252 252 251 251 251 251 251 251 251 251 251 252 252 252 252 251 253 255 253 251 251 250 250 250 251 251 252 252 251 251 251 251 251 251 251 250 250 251 251 252 252 253 253 254 255 256 257 258 260 261 262 263 263 264 264 264 264 263 263 263 263 263 263 263 264 264 264 264 264 265 265 266 266 266
251 251 252 251 250 250 251 249 250 250 250 250 250 250 251 250 251 251 251 250 251 251 251 251 251 251 251 251 250 250 250 250 251 251 251 251 251 251 251 251 250 250 250 251 251 250 250 250 250 250 251 252 252 253 253 254 256 257 259 260 260 261 262 263 264 265 265 264 263 263 262 262 262 262 263 263 263 263 263 264 264 265 265 266 266
251 250 251 250 250 250 249 248 249 249 249 250 250 249 249 249 249 249 250 251 250 251 250 251 250 250 251 251 251 251 251 249 250 250 250 250 250 251 251 250 250 250 250 250 250 250 250 250 250 250 251 251 252 252 253 254 255 256 258 259 260 262 263 265 265 265 265 265 264 263 262 262 262 262 263 263 263 263 263 264 264 265 265 265 266
249 250 250 249 250 250 249 249 248 248 247 249 249 249 249 249 248 249 250 250 250 250 250 250 250 250 250 250 251 251 251 250 250 250 249 249 250 250 250 249 249 249 250 250 249 250 250 250 250 250 250 251 251 251 252 253 254 255 257 258 260 261 263 264 265 265 266 265 264 262 261 261 261 261 262 262 263 263 263 263 263 263 264 265 265
247 248 248 249 248 247 248 247 249 251 249 249 249 248 249 248 248 249 248 249 250 250 250 250 250 250 250 250 250 250 250 250 250 249 250 249 249 249 249 248 249 249 249 249 249 250 250 250 249 249 250 250 251 251 252 252 253 254 255 257 258 260 262 263 264 265 266 266 263 261 259 259 260 260 261 261 261 261 262 262 262 263 263 263 264
247 248 247 248 248 249 248 249 248 249 249 247 248 249 248 248 249 247 249 249 249 249 249 249 249 249 249 250 250 250 250 250 249 249 249 249 249 249 248 248 249 249 249 249 249 249 249 249 249 250 250 250 250 250 251 252 252 253 254 255 257 259 261 262 264 265 266 265 262 260 258 258 258 259 260 260 260 260 261 261 261 262 262 262 262
248 248 248 248 249 249 248 247 247 247 246 246 247 247 247 247 247 248 248 248 248 248 249 249 249 249 249 249 249 249 249 249 249 249 249 249 249 249 249 248 248 248 248 248 249 249 249 249 248 249 249 249 250 250 251 251 252 252 253 254 256 258 260 262 264 265 266 265 261 259 258 257 257 258 259 259 259 259 259 260 260 261 260 260 260
247 247 247 248 248 247 246 245 246 246 245 246 246 247 247 247 247 248 248 248 248 248 249 249 248 248 249 249 249 249 249 249 249 249 249 249 249 249 248 248 248 248 248 248 249 249 249 249 249 249 249 250 250 250 251 251 251 252 253 256 258 260 262 263 264 265 266 264 258 258 257 257 257 257 258 259 260 259 260 260 260 259 259 259 259
Wind_Speed
7 7 7 6 7 7 6 6 6 4 5 5 6 6 5 5 6 5 5 6 5 6 6 6 6 5 5 6 6 6 6 7 6 6 6 6 6 6 7 8 8 8 8 8 7 8 8 9 9 8 8 9 8 8 8 9 9 9 8 8 9 8 8 10 13 17 14 5 9 11 10 12 13 8 11 9 9 8 8 7 7 6 7 7 7
7 7 6 6 8 7 6 4 4 4 6 6 7 6 6 6 5 5 6 5 4 4 5 4 4 4 4 5 5 5 6 6 7 6 6 7 7 5 6 8 8 8 8 9 9 8 9 10 10 10 9 9 10 10 9 10 9 10 10 9 9 10 7 10 12 13 19 11 9 10 11 9 15 10 9 12 10 9 10 11 9 9 7 6 6
7 7 7 8 7 6 5 4 4 7 7 6 7 6 5 5 4 4 4 3 3 4 4 4 4 4 4 5 5 5 6 6 6 6 6 7 7 7 7 8 9 9 10 10 10 10 10 10 11 11 9 11 11 10 10 10 9 10 11 10 11 11 10 10 11 15 17 17 11 12 10 9 11 14 12 11 12 9 11 10 9 9 8 7 7
8 8 8 7 6 6 5 5 7 6 6 5 6 5 4 4 4 4 3 3 3 4 4 4 4 4 4 4 5 5 5 6 5 6 6 7 7 8 8 8 8 8 9 9 10 10 11 11 11 12 12 12 12 11 10 10 10 10 12 11 11 12 11 11 12 13 15 17 14 11 11 11 11 12 11 12 14 13 11 12 8 8 9 8 8
7 7 8 8 5 6 6 5 6 6 6 5 6 5 4 3 3 4 3 3 3 3 3 3 3 4 4 5 5 5 5 6 6 6 6 6 7 7 7 7 8 8 8 9 9 10 10 10 11 11 12 12 12 10 10 13 12 11 12 11 11 11 11 11 12 13 15 17 17 13 11 12 11 12 11 12 13 14 13 12 10 10 10 9 8
7 8 8 8 7 7 6 5 6 6 6 5 5 4 4 3 3 3 3 2 3 3 3 3 3 4 4 4 4 5 5 5 6 6 6 6 6 7 7 7 7 8 8 9 9 9 9 10 10 10 11 11 12 12 12 14 13 13 14 13 12 12 13 13 12 13 14 16 17 18 14 13 13 11 10 10 12 14 13 13 11 9 8 9 8
7 8 7 8 7 6 5 5 5 5 5 5 4 4 3 3 2 2 2 2 3 3 3 3 3 3 4 4 4 5 5 5 5 6 6 7 7 7 8 8 9 8 8 9 10 10 10 10 10 11 11 11 12 12 13 14 12 14 13 13 12 13 13 13 13 14 14 16 16 15 16 14 13 15 11 9 12 13 15 14 14 11 10 9 10
8 7 8 7 7 6 5 5 5 5 5 5 4 3 3 2 2 2 2 3 3 3 3 3 3 3 3 3 4 4 5 5 5 5 6 7 8 8 8 9 9 9 9 9 10 10 10 10 10 10 10 10 11 12 13 13 12 13 12 12 13 13 13 13 13 13 14 15 15 16 15 15 14 12 12 12 12 12 10 11 14 14 12 10 10
8 8 7 8 6 6 5 5 5 5 5 4 3 3 2 2 2 2 2 2 2 3 3 3 3 3 3 3 4 4 4 4 4 5 7 8 8 9 9 9 10 10 10 10 10 10 11 10 10 10 12 16 20 18 17 17 13 13 13 12 13 13 13 12 12 13 13 14 15 13 14 14 12 12 12 11 11 12 12 10 13 14 14 13 12
9 8 8 7 6 6 6 5 5 4 4 4 3 3 2 2 2 2 2 2 2 2 2 2 3 3 4 3 4 3 4 3 6 12 11 9 9 8 9 9 9 10 10 11 11 11 11 10 11 16 18 19 19 20 19 19 19 15 14 13 13 13 13 13 13 13 13 14 15 15 16 15 14 13 14 14 14 14 15 13 14 15 15 14 15
8 9 8 7 7 6 5 5 4 4 4 3 3 2 2 1 1 1 1 1 2 2 2 2 3 3 3 4 4 4 4 4 11 12 12 13 10 9 9 9 9 10 10 11 11 11 11 11 11 13 14 15 14 18 18 19 19 19 20 20 17 14 13 13 13 13 13 14 14 14 14 16 15 13 13 13 12 12 13 13 12 13 13 13 15
9 8 8 8 6 6 5 5 5 4 4 3 3 3 2 2 1 1 0 1 1 1 2 2 3 3 3 4 4 5 5 8 12 13 13 13 12 9 8 8 8 9 10 10 10 11 12 11 11 10 10 12 13 14 16 18 19 19 19 19 18 18 18 14 13 13 12 14 15 15 15 16 17 14 13 12 12 13 12 12 13 14 16 16 15
8 9 8 9 8 6 6 5 4 4 3 4 3 3 3 2 1 1 1 1 1 2 2 3 3 3 4 4 5 6 6 9 13 14 13 14 14 12 8 8 8 8 9 10 11 11 10 11 11 10 10 16 14 13 13 14 17 20 19 19 18 18 18 19 19 16 14 14 15 16 13 15 16 13 12 14 14 16 15 13 13 14 14 15 14
8 8 8 8 8 7 7 6 5 5 4 4 3 3 3 2 1 0 0 1 1 2 2 3 3 4 4 5 5 6 7 9 14 14 14 14 14 13 8 8 8 9 10 10 10 11 11 12 12 12 11 12 13 14 14 14 14 14 13 13 14 16 20 23 24 25 21 16 17 18 16 14 16 15 15 15 15 14 13 13 13 13 14 15 17
8 9 8 7 7 5 6 6 6 5 4 4 3 3 2 1 0 0 1 2 2 2 3 3 4 4 4 5 5 6 6 12 13 15 15 15 15 13 8 8 8 8 9 10 10 11 12 12 13 13 13 13 13 16 17 17 15 13 13 12 13 14 14 15 16 14 14 14 16 18 18 16 16 16 14 13 15 15 13 14 14 14 15 16 16
8 8 8 8 8 7 7 6 5 5 4 4 3 2 1 1 0 1 1 1 1 2 2 2 4 5 5 5 6 7 7 13 14 15 16 15 16 9 7 8 8 9 9 10 11 11 11 12 12 14 15 14 17 24 22 19 16 14 15 14 13 12 13 15 21 22 18 16 15 16 15 16 21 19 17 15 12 11 12 11 10 10 13 14 15
9 9 8 9 9 7 6 6 6 5 4 4 3 2 2 1 1 1 1 2 2 2 2 3 3 5 5 5 6 7 7 10 14 16 16 17 13 8 8 8 8 9 11 11 11 11 12 13 14 14 14 15 19 24 25 24 16 15 15 15 12 10 12 11 20 26 28 29 30 30 30 29 29 28 27 27 21 16 14 15 14 12 14 15 15
9 9 10 8 8 8 5 6 6 5 5 5 4 3 2 1 1 1 2 2 3 2 2 3 3 4 5 6 5 7 6 10 15 16 16 16 14 9 8 8 10 10 10 12 12 13 14 20 20 17 17 17 23 25 27 23 16 15 15 15 16 15 14 12 10 13 24 29 30 31 30 29 30 30 28 27 26 22 15 16 15 14 16 14 16
10 11 9 9 8 7 6 5 6 6 5 5 5 3 2 2 1 1 2 2 3 2 2 3 3 3 4 6 9 9 7 9 15 16 17 16 13 9 9 9 9 9 8 10 11 11 11 12 21 20 19 21 28 27 28 24 17 15 16 16 14 12 13 13 12 13 11 10 12 14 16 20 19 17 18 26 27 25 17 16 13 14 16 16 15
10 8 8 9 8 6 6 6 6 6 6 5 4 3 2 1 1 1 1 1 2 2 3 3 5 4 4 5 5 6 7 6 9 17 16 16 16 10 9 9 10 10 10 9 9 10 9 10 12 20 26 26 26 28 27 29 20 15 12 11 12 15 11 13 13 12 11 11 12 12 13 13 13 13 13 14 16 17 18 16 15 14 15 16 16
9 9 9 8 7 6 5 6 6 5 4 5 3 2 2 1 1 1 2 2 2 3 4 4 4 4 3 5 5 6 5 7 8 16 16 16 16 14 9 9 10 10 8 8 8 10 10 8 9 17 25 26 27 29 29 30 28 18 13 12 13 16 19 14 13 17 12 10 11 10 9 10 11 11 12 13 13 13 14 16 15 15 15 15 14
9 8 8 8 7 6 6 4 4 5 4 5 4 2 1 1 1 2 1 2 4 5 4 3 4 4 3 4 4 6 7 11 9 13 16 16 15 17 11 10 11 11 13 12 14 11 10 9 7 16 28 28 28 29 30 29 29 17 14 22 28 28 19 13 11 9 8 9 11 11 12 12 12 13 13 13 13 14 14 15 16 16 15 14 15
9 8 8 8 7 7 6 6 5 4 4 5 4 2 1 1 2 2 3 3 4 5 5 4 4 4 3 2 4 5 6 7 13 12 15 15 16 16 18 15 19 13 12 10 9 10 10 11 14 24 27 27 27 28 27 29 24 17 26 26 26 29 22 9 9 10 10 11 11 12 12 12 12 12 12 13 13 13 14 14 16 16 16 16 17
9 9 8 8 7 7 6 5 6 5 5 4 3 2 2 3 3 3 3 3 3 4 3 3 3 4 4 4 3 4 6 6 9 13 12 15 16 18 18 19 19 12 11 12 12 13 13 14 15 28 28 27 27 26 26 25 18 25 25 25 25 21 11 11 9 9 10 10 11 11 11 11 12 13 13 12 14 14 14 15 15 17 17 17 18
10 9 9 8 8 7 6 5 5 5 5 5 4 3 3 3 3 3 3 2 2 4 4 2 3 4 5 5 5 5 6 6 6 9 14 15 17 18 19 20 19 19 13 10 13 13 19 26 27 25 25 25 25 23 18 18 21 22 24 23 21 10 10 10 10 10 10 11 11 12 13 12 12 13 13 14 15 14 13 13 12 12 13 14 14
10 10 9 8 8 8 7 6 4 5 5 4 4 4 4 4 3 3 2 3 3 3 4 3 3 4 5 5 6 6 6 6 6 7 8 11 12 17 20 19 17 19 19 15 20 24 23 23 25 23 20 18 14 11 11 12 18 20 20 18 10 9 9 10 10 11 11 12 12 12 13 12 12 12 13 12 12 13 10 9 9 10 9 10 11
10 9 10 8 7 7 7 6 4 4 3 3 4 3 4 3 3 3 3 3 3 4 4 3 3 4 4 5 6 6 6 7 6 7 8 7 8 9 10 7 14 17 11 11 14 12 15 17 16 19 16 19 17 15 13 13 11 10 9 10 10 10 10 10 11 11 12 11 12 12 12 12 12 12 12 11 12 10 8 8 9 13 12 12 12
11 10 9 8 7 7 6 4 5 4 4 5 4 4 4 4 5 6 6 5 4 5 4 4 4 4 5 5 6 6 7 6 6 8 7 7 7 8 6 6 9 6 8 10 8 9 10 12 13 10 10 9 9 8 8 8 9 9 9 10 10 11 13 16 14 10 10 10 11 12 12 11 11 11 11 10 11 12 8 8 10 13 12 9 11
7 7 7 7 6 5 5 5 5 5 4 4 4 5 5 5 7 6 6 4 5 6 5 6 7 6 5 6 7 7 6 6 6 10 10 14 12 10 7 8 8 5 11 13 8 6 7 8 7 8 8 9 10 9 9 10 9 9 9 10 9 10 10 9 10 10 11 11 12 12 13 12 12 10 9 9 8 9 8 9 9 9 10 10 13
8 8 7 7 6 6 6 5 5 6 5 6 4 4 8 12 9 7 7 11 16 17 14 8 8 7 8 8 8 8 5 5 12 16 15 16 17 16 15 16 15 12 14 12 8 4 5 6 6 7 8 8 9 9 10 10 11 12 10 13 11 10 10 10 10 10 11 12 12 12 12 12 12 11 10 11 10 9 9 10 11 10 11 11 11
7 7 8 8 8 8 7 7 6 5 5 4 3 3 4 5 11 15 15 13 14 15 16 19 19 17 11 8 7 13 15 15 15 14 15 15 15 15 15 14 15 14 13 7 6 3 5 7 7 7 6 7 7 8 8 9 10 11 12 12 10 10 11 10 10 11 12 12 12 12 12 12 12 12 12 12 12 12 11 9 9 10 12 12 12
10 8 8 7 7 6 5 5 4 4 4 3 3 3 3 6 8 6 9 11 12 14 15 16 16 15 17 15 8 4 9 12 13 14 15 14 13 13 13 13 13 12 10 9 3 3 3 6 7 7 7 8 8 8 8 8 9 9 10 11 11 10 10 11 12 12 12 11 12 12 12 12 13 13 13 13 13 12 11 12 12 12 12 12 12
7 7 7 8 7 6 6 5 5 5 5 5 4 3 4 4 5 8 4 2 7 12 14 14 13 12 10 9 10 10 11 11 12 13 13 12 11 11 11 11 11 9 9 5 2 4 3 5 6 7 7 7 8 8 8 8 8 9 9 9 10 11 11 11 12 11 11 12 12 12 12 13 13 13 14 14 13 13 13 13 13 12 13 14 14
8 7 9 9 7 5 5 5 5 5 4 4 4 5 4 4 4 3 5 9 5 2 6 8 8 8 8 10 11 12 11 11 11 12 11 9 9 10 9 6 6 6 7 3 3 4 5 7 7 7 7 7 7 8 8 8 8 8 9 9 10 10 10 10 10 11 10 11 11 12 12 12 12 12 12 12 13 13 13 13 13 13 13 13 14
6 5 8 7 5 6 5 5 5 5 4 4 4 4 5 3 4 3 4 4 6 9 7 5 7 8 7 9 12 13 11 11 11 11 8 7 8 9 7 5 4 3 3 1 3 4 6 7 7 8 7 7 8 7 8 8 9 8 9 10 10 9 10 10 11 10 10 11 12 11 12 12 12 12 12 13 13 13 13 13 13 13 14 14 14
6 5 4 5 5 4 5 6 4 6 5 5 4 4 5 4 5 4 5 4 5 5 7 6 3 6 11 14 13 11 10 11 10 9 5 6 7 8 4 3 3 3 3 3 2 4 5 7 7 7 7 7 7 7 7 8 8 8 8 9 10 10 10 10 10 11 12 12 12 13 13 12 12 12 12 12 13 13 13 13 13 13 14 13 13
6 5 4 4 4 3 4 4 4 4 4 4 4 3 3 4 5 4 5 5 5 5 7 7 8 8 4 3 7 9 11 10 10 7 5 7 6 4 1 2 3 4 5 3 3 4 5 5 6 7 7 7 7 8 8 8 8 8 9 9 8 9 9 9 12 12 11 12 12 12 12 12 12 12 12 13 13 12 13 13 13 14 14 15 16
6 6 5 5 4 4 5 4 4 6 5 4 4 4 4 4 5 5 5 5 5 5 5 6 5 6 8 6 2 3 8 12 10 5 5 5 3 1 1 2 2 3 4 4 3 4 6 5 4 6 6 7 7 7 7 8 8 8 9 9 8 8 15 13 12 10 9 10 11 12 12 12 11 11 12 12 12 12 13 13 13 13 14 14 12
5 7 8 8 7 5 5 5 5 4 4 4 4 5 6 5 5 5 5 5 5 5 6 5 6 6 8 6 5 4 6 5 3 3 3 2 3 2 3 3 3 3 3 4 5 4 5 6 6 6 7 6 7 7 7 8 8 8 9 9 10 9 9 9 10 9 9 10 11 12 12 12 12 11 11 11 12 12 12 13 13 13 13 12 11
6 5 7 11 6 7 6 6 5 5 6 5 6 5 5 6 6 6 5 5 6 6 6 6 7 7 6 2 4 3 4 6 6 3 3 3 3 3 3 3 3 4 4 5 4 4 5 5 5 7 7 6 6 6 7 8 8 8 9 9 9 10 10 10 10 11 10 10 11 11 12 12 12 12 11 10 11 11 12 12 13 13 12 12 12
4 4 4 7 7 5 5 6 6 6 6 6 6 6 6 7 6 6 5 5 6 6 7 7 8 7 5 8 13 12 8 7 3 3 4 3 3 3 4 4 4 4 4 4 5 4 5 6 6 7 6 6 5 6 7 7 8 8 8 9 9 10 10 10 10 9 9 9 9 10 10 10 11 11 11 11 12 12 11 11 11 11 11 11 11
5 5 5 4 5 5 5 6 5 5 5 6 5 6 7 7 5 5 6 5 6 6 6 7 7 6 8 15 15 16 9 1 2 4 4 3 4 4 5 5 4 4 5 5 5 5 5 6 6 7 6 6 5 6 7 7 8 8 9 9 10 10 10 11 11 11 10 9 9 10 11 11 12 12 12 12 11 10 10 10 10 10 10 10 9
3 4 4 4 5 5 6 6 4 4 4 5 6 5 6 6 6 6 6 6 6 6 6 7 7 4 6 10 11 12 5 4 4 5 4 4 4 5 5 5 4 4 5 5 5 5 5 6 6 6 6 6 5 5 7 8 8 9 9 10 10 10 11 11 11 12 10 9 10 12 12 11 11 10 10 11 11 10 9 10 10 9 9 9 8
3 3 4 4 5 4 5 4 4 5 5 5 4 6 6 6 5 5 6 6 6 6 6 7 6 6 6 6 7 6 5 6 6 5 5 5 5 5 5 4 4 4 5 5 5 4 5 5 5 6 6 6 6 6 6 7 8 8 9 10 10 11 11 11 12 12 9 8 10 12 12 12 11 10 10 11 10 10 10 9 9 9 9 8 8
4 4 5 5 5 5 5 4 4 4 5 5 4 5 6 5 5 6 6 6 7 6 6 6 6 6 7 6 5 6 6 6 7 6 6 6 6 6 5 5 5 5 5 5 4 4 4 6 7 7 8 6 5 5 6 7 7 8 8 9 10 10 11 11 12 12 11 8 8 10 12 11 11 10 9 10 10 10 9 9 8 9 9 8 8
4 4 5 5 5 6 5 4 6 4 4 4 5 5 6 6 6 5 6 6 6 6 6 6 5 5 7 6 6 7 7 6 6 6 7 6 6 6 5 5 5 5 5 6 5 5 5 5 6 7 8 8 7 6 6 7 7 8 9 8 9 10 10 11 11 12 11 8 7 8 9 10 10 10 12 10 9 9 9 9 8 8 7 8 8
3 4 5 5 5 6 5 5 3 4 4 5 5 5 6 6 6 6 7 7 7 7 6 6 5 6 6 6 6 7 7 6 6 6 6 6 6 6 6 5 5 6 6 5 5 6 6 7 6 7 7 8 8 9 7 6 6 7 8 8 8 10 10 10 12 12 12 10 7 7 8 9 9 9 11 10 8 9 9 8 8 8 8 7 6
4 4 4 5 3 4 4 3 5 5 5 6 5 6 6 6 6 6 6 6 6 6 6 5 6 6 6 6 6 6 6 6 5 6 6 6 6 6 6 5 6 6 6 6 6 5 6 6 7 7 7 7 7 7 7 7 7 7 7 8 8 9 13 17 13 12 10 9 7 7 6 7 7 7 7 8 8 7 7 8 8 7 7 6 6
4 4 4 4 4 5 5 6 6 5 6 6 6 6 6 6 6 5 6 6 6 5 5 6 6 5 6 7 6 6 6 7 6 6 6 6 6 6 6 6 6 6 6 7 7 6 6 6 7 7 7 7 7 7 8 7 7 7 8 7 11 18 20 22 16 12 14 9 5 6 6 6 7 7 7 7 7 6 6 6 5 6 6 6 5
5 4 5 5 5 5 6 5 5 5 6 5 6 5 6 6 5 6 5 5 5 5 6 6 6 6 6 6 7 6 5 6 6 6 6 6 6 5 5 6 6 6 6 7 7 7 7 6 7 7 7 7 7 7 7 7 8 8 7 9 16 20 21 22 21 20 14 5 6 4 5 6 6 6 5 6 6 7 7 6 5 6 5 5 5
5 4 5 5 5 4 4 4 5 5 5 6 6 6 6 6 6 6 5 6 6 6 6 6 6 6 6 6 6 6 6 6 6 6 6 6 6 6 5 5 6 6 6 7 7 7 7 6 6 7 6 6 7 7 7 7 7 8 11 17 20 20 20 19 13 16 18 8 4 4 5 6 6 7 6 6 6 5 7 7 6 5 4 4 4
Wind_Direction
155 149 141 134 128 116 107 95 102 104 103 93 87 76 70 62 58 57 49 46 37 35 36 29 22 19 15 13 12 6 5 1 360 355 355 352 351 344 343 344 340 335 333 332 335 330 327 320 317 313 310 307 305 306 304 300 296 290 289 289 286 283 280 281 280 285 289 263 275 289 302 310 295 282 289 292 293 293 288 279 279 266 262 263 269
165 151 150 138 115 109 106 114 122 116 94 76 71 67 57 54 51 50 53 41 43 39 38 28 23 18 16 14 9 5 3 360 354 353 351 349 347 349 343 343 337 333 336 331 335 334 328 323 322 322 319 312 311 307 305 305 301 296 291 287 285 286 281 285 283 284 290 296 288 286 290 292 291 293 287 296 293 296 289 291 290 284 276 262 261
150 148 136 120 117 123 132 127 111 84 80 76 75 70 66 61 55 60 54 49 39 50 32 30 22 20 18 14 9 5 3 357 352 352 349 348 343 342 343 341 339 336 335 331 331 329 326 324 321 323 323 318 314 310 308 304 301 297 295 291 289 285 283 275 280 284 287 290 290 290 289 286 281 295 298 291 288 285 287 280 281 282 278 273 265
152 131 120 119 136 138 118 98 88 91 88 86 86 78 75 72 63 59 53 47 49 36 35 28 26 21 18 17 10 5 359 351 349 350 346 345 342 337 338 337 332 330 326 324 326 327 324 322 320 322 319 313 311 312 309 308 307 303 298 295 290 288 285 280 272 275 283 288 289 286 290 289 283 284 288 293 294 289 275 279 272 267 271 268 268
141 136 134 136 136 113 102 101 103 100 97 95 93 88 80 73 61 55 40 46 39 39 26 28 27 22 19 14 5 4 355 344 345 344 342 342 337 332 328 326 325 322 320 318 319 319 316 313 312 314 313 308 307 307 308 307 304 300 296 296 292 289 286 282 279 276 278 279 285 284 285 281 280 282 286 290 292 291 290 278 274 271 272 264 266
151 144 150 133 120 115 119 116 110 107 106 103 97 90 79 64 61 47 48 37 41 35 34 21 24 17 15 12 1 356 345 341 339 337 336 336 330 325 322 319 318 319 315 315 314 313 310 308 308 309 309 307 306 307 307 305 304 299 298 297 295 293 291 288 284 282 279 280 284 290 287 287 289 279 286 290 293 293 291 292 293 280 271 269 250
158 152 143 129 127 129 130 126 120 115 112 106 101 92 81 72 64 64 36 49 44 38 23 30 14 20 8 6 358 351 339 335 334 334 333 330 325 323 324 324 323 321 319 317 317 315 311 310 308 309 306 305 304 306 308 306 304 301 301 301 298 297 295 294 293 290 287 288 287 286 291 290 288 289 286 282 283 284 290 296 292 288 280 270 278
160 151 140 132 133 137 131 128 118 115 112 107 101 98 92 80 67 56 49 37 41 31 15 13 10 9 5 357 349 339 330 328 329 325 321 324 327 325 324 322 320 317 315 313 314 310 309 307 305 304 304 304 304 304 304 303 303 299 298 297 296 294 293 293 293 292 291 288 284 287 285 288 289 282 285 283 277 273 270 282 288 292 290 291 288
157 149 144 140 144 140 132 118 114 114 113 109 107 103 89 74 61 52 45 37 28 21 7 360 2 1 357 351 342 332 324 323 327 319 324 327 325 320 319 316 314 313 312 310 309 306 305 304 302 301 301 302 300 300 299 299 300 299 300 302 302 301 298 295 294 294 291 289 289 290 292 293 294 302 302 296 290 288 292 291 289 288 291 291 285
154 153 152 147 141 135 123 118 120 121 119 120 114 108 90 77 69 58 38 36 14 6 0 355 2 351 345 338 337 323 313 313 305 315 319 318 318 314 311 309 310 309 308 306 305 305 305 303 301 300 301 302 302 301 300 299 298 297 300 303 303 301 299 298 296 296 295 293 291 294 293 291 296 298 298 300 303 302 296 289 283 286 291 291 289
161 158 152 143 137 130 124 127 126 126 127 122 119 124 119 137 105 94 38 21 357 359 345 352 352 339 340 334 327 321 304 301 309 316 316 315 313 310 307 306 305 304 302 302 302 306 305 304 301 302 300 300 299 298 300 300 300 299 298 298 297 298 300 298 295 296 295 291 292 293 294 296 299 304 306 311 312 307 308 310 306 302 297 297 293
160 160 142 141 140 135 133 134 132 132 136 147 146 148 157 154 136 117 24 2 342 334 339 351 330 336 327 329 319 310 303 304 313 313 312 312 312 309 306 302 301 299 302 304 304 305 303 301 300 298 297 296 297 298 299 298 298 299 299 299 298 298 297 298 301 299 296 293 290 288 292 291 293 295 298 300 298 296 296 296 297 292 284 278 278
153 145 147 142 139 137 139 142 141 146 162 163 156 157 149 148 136 144 14 317 302 330 345 335 327 329 325 323 315 307 296 305 309 310 310 312 311 310 303 299 297 301 304 302 299 298 298 299 300 295 295 296 296 296 295 295 295 296 297 297 297 294 292 292 291 290 293 291 292 292 293 297 294 295 299 297 298 294 296 291 290 289 292 294 293
156 154 151 150 142 146 143 146 152 162 166 159 151 142 132 137 129 229 325 311 328 325 326 325 326 324 322 316 307 301 297 301 308 310 313 311 310 309 301 302 300 298 296 296 297 297 296 297 298 296 295 294 293 295 296 293 292 291 287 282 279 275 275 276 279 282 280 280 283 283 283 279 282 288 288 288 281 275 277 276 273 275 275 275 280
158 156 159 151 148 151 158 155 159 162 159 148 137 133 132 144 202 235 324 320 326 322 323 319 311 311 308 308 303 297 291 306 311 312 312 312 311 315 309 302 293 289 293 295 295 294 293 291 291 291 292 292 288 289 291 290 288 279 271 264 260 261 259 267 267 260 256 257 268 272 273 270 272 279 280 277 269 268 266 268 269 269 272 273 270
162 155 163 168 166 168 161 160 159 155 151 140 125 136 149 177 249 292 288 288 275 288 296 300 303 307 305 302 300 296 296 312 313 313 313 314 316 316 304 295 290 289 291 294 295 294 291 290 288 285 284 279 276 287 290 290 287 279 273 267 260 254 255 249 257 262 264 264 264 264 265 270 275 279 280 279 274 277 277 278 282 289 291 288 285
177 176 177 170 174 171 163 155 156 154 152 144 146 172 171 207 238 214 261 286 294 295 288 292 296 294 296 293 295 294 294 308 312 313 315 315 317 304 300 296 290 291 293 294 296 292 288 282 277 279 280 280 278 286 293 292 285 276 272 270 266 258 261 249 259 267 271 272 274 276 277 280 283 285 285 285 285 285 288 289 287 288 284 285 285
182 180 182 176 173 166 160 154 157 159 157 161 165 176 174 209 218 211 266 287 291 278 292 292 277 276 283 287 287 294 293 306 311 313 314 312 311 306 299 293 290 285 278 284 284 281 268 264 274 277 278 278 281 286 289 292 287 281 279 278 277 272 268 262 253 258 261 268 270 273 275 277 279 283 285 286 285 285 284 280 280 280 277 276 281
183 188 182 167 164 156 154 158 157 162 167 166 164 176 196 204 210 218 233 245 269 284 292 288 279 274 266 277 296 300 296 301 307 308 310 310 310 302 297 289 280 281 272 275 277 270 264 260 275 279 286 289 292 294 294 294 288 282 280 275 272 261 266 261 259 265 260 257 257 257 262 266 269 267 266 268 274 276 273 272 275 272 273 274 277
183 164 151 154 151 154 159 161 164 166 167 160 165 177 180 179 215 239 264 273 279 291 282 275 280 281 279 284 287 292 293 288 295 301 306 307 308 304 298 296 291 281 274 273 285 279 266 261 263 283 294 295 295 296 296 292 288 282 277 273 271 276 270 267 265 267 263 256 257 253 255 254 254 258 257 258 261 261 264 267 268 269 271 272 270
161 160 147 151 156 158 160 164 165 170 162 159 157 159 172 202 231 259 281 293 289 290 281 274 276 281 285 289 288 288 276 284 287 298 304 306 306 306 295 279 274 273 268 271 275 290 283 256 269 287 299 298 296 294 291 287 289 290 289 284 280 280 287 286 281 275 271 271 274 275 276 278 275 271 269 269 267 267 268 270 270 269 270 272 271
155 154 158 161 161 159 160 160 157 159 155 139 151 182 197 173 221 243 257 271 282 280 281 280 280 285 292 289 283 280 283 284 283 291 298 304 306 306 304 297 300 302 302 301 296 285 278 279 249 292 300 298 294 290 290 293 299 303 301 301 300 304 308 307 304 301 292 291 290 287 284 280 279 278 275 272 272 272 270 270 269 268 267 266 268
156 155 156 160 164 164 163 159 162 159 153 161 152 182 196 206 239 222 226 252 261 275 275 281 291 299 301 291 279 273 272 273 284 287 295 307 309 312 310 309 309 307 303 287 286 297 297 297 297 296 296 299 304 308 311 313 316 307 305 305 306 310 317 327 323 316 311 307 302 296 291 288 286 283 280 281 279 276 274 272 271 269 268 266 264
152 156 163 166 160 164 166 164 164 164 159 152 149 173 216 222 229 226 218 227 248 270 278 287 300 305 308 300 279 273 276 279 275 287 304 311 315 315 314 312 312 307 303 306 312 312 314 306 303 309 313 312 310 309 309 309 306 307 309 310 314 322 330 325 322 313 307 300 293 290 289 286 284 281 280 280 282 277 273 269 268 268 267 267 266
161 167 169 167 167 165 161 169 167 167 166 152 159 181 219 201 228 237 208 233 241 263 275 276 283 292 297 294 299 296 293 292 294 298 310 316 317 316 315 315 315 320 323 320 317 310 310 313 314 314 315 316 315 314 313 311 310 311 314 318 324 323 319 313 310 308 301 297 293 290 286 281 277 276 277 280 278 275 271 272 266 265 263 264 263
168 173 167 168 172 163 168 175 173 174 167 170 176 185 194 203 209 231 220 235 229 242 267 266 270 273 276 282 293 296 286 289 298 300 305 304 301 304 308 313 321 326 324 319 318 318 317 319 320 320 319 319 322 321 314 314 313 316 319 322 319 314 313 314 310 309 299 296 292 285 284 283 281 280 279 276 279 275 271 269 271 265 253 258 262
168 164 174 172 168 174 175 181 179 177 176 176 186 186 191 193 205 229 225 228 235 233 249 248 259 258 255 276 285 283 286 291 281 302 310 297 295 290 290 309 331 327 328 326 322 325 329 327 323 324 327 326 328 325 322 321 321 321 325 326 327 326 324 321 314 306 302 298 298 296 296 292 288 287 286 285 281 272 265 263 266 272 271 270 266
174 178 174 174 174 176 179 171 170 181 190 175 187 200 208 196 198 213 201 205 206 231 219 233 236 247 253 264 266 272 283 261 289 307 286 269 279 297 309 332 329 332 341 322 349 351 336 332 332 333 332 334 333 333 331 331 327 327 326 327 323 321 316 309 302 295 294 298 297 297 293 294 290 286 283 281 281 285 278 270 271 275 272 267 269
165 164 169 165 178 171 179 181 185 183 193 199 217 204 190 193 212 231 225 193 208 223 233 236 242 239 244 254 266 271 255 284 298 293 299 309 311 313 331 331 326 353 331 342 16 354 335 331 334 338 341 339 336 332 332 332 327 323 320 319 321 320 316 318 319 316 313 313 311 308 302 296 290 280 278 280 280 283 281 278 265 260 265 259 259
167 176 173 179 175 174 177 189 182 185 192 208 223 264 239 231 220 211 242 228 232 236 229 221 227 237 250 252 236 246 268 284 300 306 309 308 311 318 322 324 329 334 329 2 15 348 327 325 324 328 331 335 333 331 330 330 327 327 323 325 324 321 322 322 317 316 316 312 307 303 298 296 289 287 282 286 284 282 272 264 270 260 261 259 255
177 178 172 192 185 181 176 171 183 181 191 183 199 233 312 278 255 248 248 248 254 256 256 257 257 252 251 258 267 281 291 300 304 305 305 307 314 321 324 328 336 334 335 12 6 351 326 329 323 321 324 323 321 322 320 320 320 319 319 318 316 320 322 319 318 315 312 308 304 299 296 295 303 307 298 291 285 283 283 268 256 262 261 259 258
183 190 182 170 178 176 174 176 172 180 184 190 187 205 246 294 299 255 236 252 258 261 262 265 268 272 272 267 266 300 293 294 297 303 304 309 319 323 326 338 340 334 342 23 355 319 315 317 318 320 323 323 318 317 317 314 312 311 311 313 314 314 318 316 315 313 307 305 304 302 302 311 313 310 306 303 296 289 283 285 282 276 266 261 256
186 178 184 174 167 165 171 174 178 177 180 185 195 195 207 218 253 302 317 256 270 271 272 268 271 274 272 274 283 287 291 297 300 302 303 313 325 326 337 355 340 338 357 9 329 313 305 311 308 310 314 310 312 311 309 308 306 306 304 302 304 310 310 306 307 306 306 302 306 311 316 314 312 314 315 311 310 307 306 300 297 293 291 290 288
188 184 177 173 171 176 173 178 176 180 180 183 185 188 211 206 216 228 294 316 326 269 272 295 308 317 315 301 295 294 294 298 301 299 305 323 331 333 356 355 334 7 5 341 319 309 310 313 310 311 309 305 303 305 303 305 307 302 302 300 300 300 300 303 307 307 300 306 317 315 313 313 314 314 310 310 307 306 302 302 301 300 298 295 293
185 175 172 177 179 173 166 171 171 170 172 191 190 203 208 211 203 209 213 230 275 294 296 297 304 305 294 299 298 291 293 298 300 300 313 345 341 351 15 19 359 337 352 298 291 294 304 306 305 306 305 302 303 302 302 303 305 304 305 305 301 301 307 312 311 302 311 321 318 316 315 314 313 310 309 307 307 304 303 303 304 303 301 299 298
179 163 162 179 175 174 160 161 171 178 189 195 190 195 193 201 215 221 224 226 228 252 281 277 266 272 283 279 273 278 292 298 296 299 328 360 358 26 14 346 337 314 309 295 277 289 290 287 291 294 298 294 297 299 301 302 300 302 301 301 304 306 309 309 311 323 326 319 315 315 316 314 312 309 306 304 302 302 302 302 302 303 302 301 300
178 178 170 172 170 168 161 169 181 190 200 189 185 188 200 216 225 224 224 226 234 244 250 285 310 305 280 260 288 294 300 300 294 298 6 6 17 65 145 260 271 297 296 302 299 294 293 289 295 291 295 297 300 302 302 300 299 300 300 300 297 301 302 305 322 322 318 319 319 318 316 313 311 310 309 307 306 305 304 304 304 304 306 305 305
183 176 167 169 163 166 161 178 185 204 209 200 184 197 216 216 224 222 225 232 238 242 253 255 256 270 290 282 264 297 304 300 295 300 348 0 20 57 240 248 264 276 291 291 287 291 293 293 296 298 298 299 300 303 300 298 301 302 304 301 301 301 313 316 315 309 303 309 314 315 315 312 312 310 309 307 306 306 306 308 308 308 306 307 309
174 184 183 180 184 177 175 175 188 197 208 205 205 204 218 222 227 230 232 237 245 253 250 257 259 255 254 270 291 291 302 281 263 263 280 295 293 283 279 286 280 270 267 277 289 290 289 292 297 296 293 296 298 298 298 297 301 302 305 306 309 309 316 316 313 311 314 317 317 320 320 316 314 311 309 306 305 307 308 311 310 307 305 307 309
167 177 186 188 192 192 174 183 191 198 201 196 212 204 221 223 228 229 232 230 240 241 245 249 254 251 254 254 269 272 256 265 275 272 282 279 279 278 261 269 270 260 274 281 279 282 288 284 286 289 291 294 295 296 297 299 300 301 304 308 311 314 315 314 313 317 319 321 318 317 315 312 311 308 307 308 306 309 311 311 309 307 306 305 308
169 172 168 198 195 198 182 178 199 203 197 202 202 202 217 224 227 229 226 235 238 244 244 247 251 257 253 256 265 261 255 253 238 261 268 267 259 254 252 241 243 262 262 262 271 275 274 281 283 285 287 291 294 295 300 300 302 303 305 307 309 312 316 316 312 311 319 320 315 312 309 308 307 313 314 314 313 312 305 303 305 307 309 308 310
169 166 189 199 206 195 197 214 208 199 195 197 202 210 220 221 223 222 228 231 235 239 251 254 256 257 263 268 270 270 271 112 264 266 272 258 252 250 245 245 239 242 254 259 261 272 275 279 281 286 288 296 298 298 301 300 303 304 304 307 310 313 317 319 322 323 323 320 316 314 313 314 317 316 312 311 307 304 305 306 308 309 310 314 315
173 186 192 188 196 208 209 213 197 202 212 212 222 217 217 216 223 224 230 233 235 240 243 256 264 261 263 270 277 282 297 297 280 270 262 263 260 258 253 252 249 242 248 257 255 255 262 269 277 281 283 285 289 290 295 296 299 301 302 305 307 309 315 320 323 328 326 320 318 317 314 313 314 312 312 312 310 311 310 311 311 312 312 313 316
176 189 194 204 209 215 217 203 212 213 211 217 217 220 223 227 228 226 228 236 239 240 243 251 259 270 270 272 274 284 284 273 265 259 257 259 262 263 265 260 264 263 262 260 260 256 261 267 271 276 276 274 277 278 278 283 290 292 298 302 304 308 314 318 324 327 323 319 320 321 319 316 312 311 309 314 317 315 315 314 317 319 320 318 320
184 195 201 207 212 209 226 217 221 222 226 222 229 232 229 223 228 229 228 236 241 240 244 247 252 255 265 266 255 250 252 254 258 258 259 258 266 267 270 271 269 273 276 277 269 270 267 271 274 280 286 282 279 280 281 283 286 288 292 299 300 302 309 318 324 325 321 316 313 317 318 316 313 313 314 318 320 319 316 320 321 325 329 330 332
193 200 204 212 215 218 219 224 221 218 222 226 230 240 236 234 234 234 235 236 237 242 247 248 246 247 248 257 256 254 253 250 253 252 257 262 259 266 266 270 273 272 271 274 279 275 272 268 273 276 282 287 292 287 285 284 286 289 291 290 293 294 300 311 320 322 323 317 315 314 314 314 313 313 319 321 321 324 321 322 324 332 333 334 341
197 200 212 210 216 222 227 221 217 223 226 234 234 239 242 236 231 235 236 237 239 241 245 247 244 247 245 247 249 253 252 250 251 254 253 257 263 264 271 271 274 275 275 273 272 274 275 271 267 269 275 281 287 289 288 286 288 290 289 291 290 295 300 315 318 318 320 320 320 316 313 311 311 313 316 321 323 328 330 331 333 336 339 347 348
198 202 209 214 215 222 230 219 228 230 225 229 233 236 239 240 236 233 234 236 240 242 246 247 245 247 249 251 247 249 249 250 253 253 260 261 261 263 265 269 272 274 280 281 277 272 267 270 269 269 272 278 282 286 289 291 289 287 289 291 291 292 302 309 311 311 312 322 326 317 304 301 304 306 311 318 323 323 328 339 336 337 341 343 352
190 198 216 217 222 225 225 230 226 227 232 237 240 243 239 240 238 236 237 237 237 239 237 245 250 249 247 250 250 251 246 249 254 256 255 258 259 260 260 262 267 271 274 278 278 275 271 270 269 270 270 275 277 279 284 284 286 287 290 289 293 297 303 305 308 308 311 318 323 319 311 307 309 312 315 319 325 321 320 330 336 337 340 343 346
212 218 219 228 228 233 228 225 225 230 236 234 235 245 247 243 247 245 242 239 243 244 242 239 245 246 246 255 250 249 245 247 250 253 256 258 258 256 260 261 264 265 266 271 275 276 275 271 272 272 274 273 274 274 277 278 282 284 287 287 290 295 300 305 307 305 311 330 328 323 310 306 310 308 312 317 324 331 333 334 336 343 344 345 349
217 218 221 222 228 233 227 225 233 231 230 230 232 238 244 241 242 244 241 238 241 244 241 240 241 246 244 246 249 253 253 254 254 255 259 259 259 255 255 258 264 269 271 270 273 273 271 274 273 275 275 275 277 277 276 277 279 279 282 286 292 300 304 306 307 309 316 336 339 330 324 322 320 325 327 327 334 340 340 339 343 346 344 344 343